Wind_Speed
32 32 32 31 30 31 31 31 31 29 29 28 29 29 29 30 30 30 31 31 31 31 32 33 33 34 35 35 35 36 36 37 37 37 38 38 37 37 37 37 37 36 36 36
35 34 35 35 33 33 34 34 34 33 31 31 32 32 32 32 33 33 33 33 33 34 35 35 35 36 36 37 37 38 38 38 38 38 38 39 39 38 38 38 37 36 36 36
37 37 37 37 35 35 35 35 35 35 34 35 34 34 35 35 35 35 35 35 36 36 36 37 37 38 38 39 39 39 39 39 40 40 40 39 39 39 39 39 38 38 37 37
40 40 40 38 37 37 37 37 38 38 37 38 38 38 38 38 37 37 37 37 37 38 38 39 39 40 40 40 40 40 40 40 40 41 40 40 40 40 40 39 38 38 38 38
43 43 42 39 39 39 40 40 39 40 40 40 40 40 40 39 39 39 38 38 39 40 40 41 41 41 41 41 41 41 41 41 41 42 41 41 41 41 41 40 40 39 39 39
44 45 44 41 41 41 42 42 40 41 41 42 42 42 41 41 41 41 41 41 42 42 42 42 42 43 43 43 43 43 43 43 42 42 42 42 42 41 41 41 40 40 40 40
45 46 46 43 42 42 42 42 42 42 42 43 43 44 43 43 43 43 43 44 44 44 44 44 44 44 44 44 44 44 44 44 44 43 43 43 43 42 42 42 42 41 41 41
45 46 45 43 44 44 44 44 44 43 43 44 44 44 44 45 45 45 45 45 45 45 45 45 46 46 46 45 45 45 45 45 45 45 45 45 45 44 44 43 42 42 42 42
47 47 45 45 45 46 46 46 45 45 45 45 45 45 46 47 47 47 47 47 48 48 48 48 48 47 47 46 46 46 46 46 46 46 46 46 46 45 44 44 44 43 44 43
49 47 46 46 47 47 48 49 49 49 48 48 48 48 48 48 49 49 49 49 49 50 50 49 48 48 47 47 47 46 46 47 46 46 46 46 46 46 46 45 45 45 45 44
51 48 48 49 49 50 51 52 52 52 51 51 51 51 51 50 50 49 49 49 49 49 49 49 48 48 47 47 47 47 47 46 46 45 45 45 45 45 45 46 46 46 45 45
49 48 50 50 50 51 52 52 52 52 52 51 52 52 51 51 51 50 50 49 49 49 49 48 48 47 47 48 47 47 46 46 46 46 45 45 45 45 45 45 45 45 45 44
49 49 50 50 49 50 51 51 51 51 51 51 51 51 51 50 50 50 50 50 50 49 48 48 47 47 47 47 47 47 46 46 46 45 45 44 45 44 44 44 44 44 43 43
48 49 50 49 49 48 48 49 49 50 50 50 50 50 50 50 49 49 50 50 50 49 48 48 47 47 46 46 46 46 46 45 45 45 45 45 45 45 45 45 44 42 42 42
46 47 48 47 47 46 46 47 47 48 49 49 49 50 49 49 49 49 49 49 49 48 47 47 46 46 46 46 45 45 45 45 45 45 45 45 45 45 45 44 43 42 42 41
44 44 45 45 45 45 45 46 47 48 48 49 49 49 49 49 48 47 47 47 47 47 46 46 46 45 45 46 45 45 45 45 45 45 45 45 44 44 43 43 42 41 41 40
42 42 43 44 44 44 44 45 46 46 47 47 46 45 46 46 46 45 45 45 46 46 45 45 45 45 45 45 45 45 44 44 44 44 43 43 42 42 42 41 40 40 39 38
40 41 42 42 43 43 43 43 44 44 44 44 44 44 44 44 44 44 44 44 45 44 43 44 44 44 44 44 44 44 44 43 42 42 41 41 40 40 40 39 39 39 38 37
38 40 41 42 43 43 43 43 43 42 42 42 42 42 42 42 42 43 43 43 43 43 42 43 43 43 43 42 42 41 40 40 39 39 39 38 38 37 37 37 37 37 36 35
37 38 39 40 41 41 41 41 40 40 40 40 41 41 41 41 41 41 41 41 40 40 41 41 42 41 41 41 40 39 39 38 37 37 36 34 34 33 33 32 33 33 33 33
36 38 39 39 39 39 39 39 39 39 39 39 40 40 40 39 39 39 38 37 36 37 38 38 38 38 38 38 37 36 35 34 33 32 32 31 30 30 29 29 29 30 30 30
36 37 37 37 38 38 38 38 38 38 38 38 39 39 39 38 37 37 36 35 35 35 35 34 33 33 33 33 33 32 31 30 29 29 28 28 27 27 27 27 27 28 28 29
38 38 38 37 37 37 36 36 36 36 36 37 36 36 36 36 35 34 33 33 33 32 31 30 30 30 30 30 29 28 28 28 27 27 26 26 26 26 26 26 26 27 27 27
37 37 37 37 37 36 35 34 34 35 35 35 34 34 34 33 32 32 31 30 30 29 28 28 27 27 27 27 27 27 26 26 25 25 25 25 25 25 25 25 25 25 25 26
35 35 35 35 35 35 34 34 34 33 32 32 32 31 31 32 31 30 30 29 28 27 27 27 26 26 25 25 25 25 25 24 24 24 24 24 24 24 24 24 24 24 24 24
34 34 34 33 33 32 32 32 31 30 30 29 29 29 29 29 29 28 27 27 26 26 26 25 25 25 24 23 23 23 23 23 23 23 23 23 23 23 23 23 22 22 22 23
32 32 32 32 31 31 30 30 30 29 29 29 28 28 27 27 27 26 26 26 25 25 24 24 23 22 22 21 21 20 20 21 21 22 22 22 22 22 22 22 22 22 22 23
Wind_Direction
281 281 280 278 276 275 275 276 275 274 272 273 273 273 272 271 272 273 273 273 272 272 272 272 271 270 269 269 268 268 268 268 268 268 267 267 268 268 269 269 268 268 268 268
279 279 278 276 276 276 275 275 274 273 271 271 271 271 272 273 273 273 273 273 273 273 273 273 273 272 271 270 270 270 270 270 269 269 269 269 269 268 269 268 268 268 268 267
278 278 277 276 277 276 276 274 272 272 272 271 271 272 271 271 273 273 273 273 273 274 273 274 274 274 273 272 271 270 270 271 271 271 270 270 269 269 269 268 267 267 267 267
279 277 276 279 277 276 275 274 274 272 273 272 272 272 272 272 273 273 273 274 274 275 274 274 274 274 274 273 272 271 271 271 271 271 271 271 270 269 268 267 267 267 267 268
278 278 278 278 278 277 275 274 274 274 274 273 272 272 273 274 273 273 273 274 275 275 275 275 275 275 275 273 272 272 272 271 271 271 271 271 270 269 268 266 265 266 267 267
276 277 277 279 278 277 276 276 275 274 274 275 274 274 274 273 274 274 274 274 275 276 276 276 275 275 275 274 273 273 272 272 271 271 271 270 269 268 267 266 266 266 267 267
276 276 276 277 277 276 276 276 275 275 275 275 275 274 274 273 273 273 274 274 275 276 276 276 276 276 276 275 274 273 272 272 271 270 270 270 269 268 267 266 266 266 266 266
274 275 276 276 274 274 274 275 276 277 277 276 276 275 273 273 273 273 274 275 276 276 277 277 277 277 277 276 274 273 272 271 270 269 268 268 267 266 266 265 265 264 265 265
273 274 275 274 273 273 274 275 276 276 276 276 276 275 274 274 274 275 275 275 276 276 277 276 277 277 276 276 275 273 272 271 270 269 268 267 266 265 265 264 264 264 264 264
272 273 272 272 272 272 273 274 275 276 276 276 276 276 275 275 274 275 275 276 275 275 276 276 276 276 276 275 275 274 273 272 271 270 268 267 266 265 265 265 265 265 265 265
272 272 271 270 270 271 272 273 275 275 275 275 276 276 275 275 275 274 275 276 276 275 275 275 275 275 275 275 275 275 274 273 271 270 269 267 266 266 266 265 266 266 266 266
271 271 270 270 270 270 272 273 274 274 274 274 274 275 275 274 274 274 274 275 275 275 275 275 274 274 274 274 275 275 274 273 272 271 269 268 267 267 267 267 266 267 266 266
271 270 270 271 271 272 272 273 274 274 274 274 274 275 275 274 274 274 275 275 275 275 274 274 274 274 274 274 274 274 273 273 272 271 269 268 268 267 266 266 266 266 265 265
270 270 270 271 272 272 273 274 274 274 274 275 275 275 275 275 275 274 274 275 275 274 274 274 273 273 274 273 274 274 273 273 272 271 270 269 268 267 266 266 265 264 263 262
271 271 272 272 272 273 274 273 273 274 274 274 274 275 276 275 275 275 274 274 274 273 273 272 272 273 273 273 273 273 273 273 273 271 270 269 268 267 266 265 263 262 261 260
271 271 272 272 273 273 273 273 274 274 274 275 275 276 276 276 275 275 274 273 272 272 272 272 272 272 272 272 272 272 272 272 272 271 269 269 267 266 264 263 261 260 259 259
271 271 271 272 273 273 274 275 276 276 277 276 275 275 275 275 275 275 274 273 273 273 273 273 272 272 272 272 272 272 272 272 272 270 268 267 266 265 263 261 260 258 257 256
273 273 273 274 274 274 275 276 276 277 277 277 276 276 276 275 275 275 274 273 272 272 273 272 272 272 271 272 272 272 272 271 270 269 268 266 265 263 260 259 258 256 255 254
274 274 275 276 276 277 278 278 278 278 277 277 277 277 276 277 276 275 275 274 273 271 270 269 270 271 271 271 272 272 271 270 269 269 268 265 264 262 259 257 256 254 253 252
278 278 278 279 279 280 279 279 278 278 278 278 278 277 276 276 276 276 276 275 274 271 269 268 269 269 269 270 271 271 270 270 269 268 267 263 261 258 256 255 254 252 251 250
279 280 280 280 279 279 279 279 279 279 279 278 278 278 277 276 276 277 278 277 274 271 270 270 270 269 268 269 270 270 269 268 267 265 263 260 257 254 253 252 251 250 248 247
278 279 280 280 280 280 280 280 280 280 279 279 279 279 278 277 277 276 277 277 274 272 271 270 269 268 268 269 268 267 266 265 263 261 260 256 252 251 250 249 248 248 247 247
280 280 280 281 282 283 282 281 281 281 282 282 281 280 279 277 276 275 275 275 274 272 271 270 268 268 267 267 267 266 263 261 259 258 256 252 249 248 247 247 247 247 247 246
282 281 282 283 284 284 283 281 281 282 283 283 282 281 280 278 275 275 275 273 272 270 268 268 267 267 268 267 266 264 261 258 256 254 252 248 246 245 245 246 245 245 245 245
283 283 284 285 286 285 284 282 281 282 282 283 283 282 282 280 277 274 272 271 268 266 266 266 266 267 268 266 265 262 259 256 253 250 248 244 243 242 242 243 243 244 244 244
283 284 285 285 286 286 286 284 283 282 282 283 283 282 281 280 278 275 271 269 266 265 264 263 263 265 265 264 264 261 256 253 250 247 245 242 240 239 239 240 241 241 242 242
284 284 284 286 286 286 285 285 284 283 283 283 283 282 281 279 277 274 271 267 264 263 261 261 262 262 261 261 261 258 253 250 246 244 242 239 238 238 238 239 240 241 242 243
Height
5672 5671 5669 5668 5668 5666 5664 5663 5662 5663 5662 5662 5660 5658 5657 5656 5655 5654 5653 5653 5652 5651 5650 5649 5648 5647 5646 5645 5644 5644 5643 5643 5642 5642 5641 5641 5641 5640 5640 5640 5640 5641 5641 5641
5663 5661 5659 5657 5658 5656 5655 5654 5652 5652 5652 5652 5649 5648 5647 5646 5645 5645 5644 5643 5642 5640 5639 5638 5637 5636 5635 5634 5633 5633 5632 5632 5631 5630 5630 5630 5630 5629 5629 5629 5630 5630 5630 5630
5651 5650 5647 5647 5648 5646 5644 5643 5642 5641 5642 5640 5639 5637 5636 5636 5635 5633 5633 5632 5631 5629 5628 5626 5625 5624 5623 5622 5621 5621 5620 5620 5620 5619 5619 5618 5618 5618 5618 5618 5619 5619 5619 5620
5638 5637 5636 5639 5636 5634 5633 5632 5630 5629 5629 5628 5627 5625 5625 5624 5623 5622 5621 5620 5619 5617 5616 5615 5613 5612 5611 5610 5609 5609 5608 5608 5607 5607 5607 5607 5606 5606 5606 5607 5607 5608 5608 5609
5625 5623 5623 5626 5624 5622 5620 5620 5619 5617 5616 5615 5613 5613 5613 5612 5610 5609 5608 5607 5606 5605 5603 5602 5601 5599 5599 5598 5597 5596 5596 5595 5595 5594 5594 5594 5594 5594 5594 5595 5595 5596 5597 5597
5612 5609 5610 5614 5611 5608 5607 5607 5607 5604 5603 5602 5601 5601 5601 5599 5598 5596 5595 5594 5593 5592 5590 5589 5588 5586 5586 5585 5584 5583 5582 5582 5582 5581 5581 5581 5581 5582 5582 5582 5583 5584 5584 5585
5598 5595 5596 5600 5597 5595 5595 5594 5592 5590 5589 5589 5587 5587 5587 5585 5584 5583 5582 5581 5579 5578 5577 5576 5574 5573 5572 5571 5570 5569 5568 5568 5568 5568 5568 5568 5568 5569 5569 5570 5571 5571 5572 5573
5584 5582 5586 5585 5583 5582 5580 5579 5577 5576 5575 5574 5573 5572 5572 5571 5570 5569 5568 5567 5565 5564 5563 5562 5560 5558 5558 5557 5555 5554 5554 5554 5554 5554 5554 5554 5554 5555 5555 5556 5557 5558 5559 5560
5571 5572 5571 5569 5568 5567 5565 5564 5563 5562 5561 5560 5559 5558 5557 5557 5556 5555 5553 5552 5551 5549 5548 5547 5545 5543 5543 5542 5540 5540 5539 5539 5539 5539 5539 5539 5540 5540 5541 5542 5543 5545 5545 5546
5555 5556 5556 5554 5553 5551 5550 5549 5548 5547 5546 5545 5544 5543 5542 5541 5541 5539 5538 5537 5535 5534 5533 5532 5530 5529 5527 5526 5525 5525 5524 5524 5524 5524 5524 5524 5525 5526 5527 5528 5529 5530 5531 5532
5539 5541 5539 5539 5538 5536 5535 5534 5533 5532 5531 5530 5528 5527 5526 5525 5525 5523 5522 5521 5519 5518 5517 5516 5515 5514 5513 5511 5510 5510 5510 5509 5509 5509 5509 5509 5510 5511 5512 5513 5513 5515 5516 5517
5524 5524 5521 5522 5522 5520 5519 5518 5517 5516 5515 5514 5512 5511 5510 5510 5509 5508 5507 5505 5504 5503 5502 5501 5500 5499 5498 5497 5496 5495 5495 5495 5494 5494 5494 5494 5495 5496 5496 5498 5498 5499 5500 5502
5507 5506 5505 5506 5505 5504 5502 5502 5501 5499 5498 5497 5496 5495 5494 5493 5493 5492 5491 5489 5488 5487 5486 5486 5485 5484 5483 5482 5481 5481 5480 5479 5479 5479 5479 5479 5480 5481 5482 5483 5483 5484 5485 5486
5491 5490 5489 5490 5489 5488 5487 5486 5485 5483 5482 5481 5480 5479 5478 5477 5477 5476 5475 5473 5472 5471 5471 5470 5469 5469 5468 5467 5467 5466 5465 5464 5464 5464 5464 5464 5464 5465 5466 5467 5469 5470 5471 5471
5476 5475 5474 5474 5474 5473 5471 5470 5469 5468 5467 5466 5464 5463 5462 5461 5460 5459 5458 5457 5456 5455 5455 5454 5454 5454 5453 5452 5452 5451 5450 5450 5449 5449 5449 5449 5449 5449 5450 5451 5453 5455 5456 5458
5461 5460 5459 5459 5458 5457 5456 5455 5454 5453 5451 5450 5449 5448 5446 5445 5444 5443 5442 5440 5440 5439 5439 5439 5439 5438 5437 5437 5436 5436 5436 5435 5434 5434 5434 5434 5434 5434 5435 5436 5438 5440 5442 5444
5447 5447 5446 5445 5444 5443 5442 5440 5439 5437 5436 5435 5433 5432 5430 5429 5428 5427 5426 5425 5424 5424 5424 5423 5423 5423 5422 5421 5421 5421 5421 5420 5419 5419 5419 5419 5419 5420 5420 5421 5423 5426 5428 5430
5434 5433 5432 5431 5430 5429 5428 5426 5425 5423 5421 5420 5418 5417 5416 5414 5413 5412 5411 5409 5409 5409 5409 5408 5407 5407 5407 5406 5406 5406 5406 5405 5405 5405 5405 5405 5405 5406 5407 5408 5410 5412 5415 5417
5422 5421 5419 5418 5416 5415 5414 5412 5411 5409 5407 5406 5404 5402 5401 5400 5398 5397 5396 5395 5394 5394 5395 5393 5392 5392 5392 5392 5391 5391 5391 5391 5391 5391 5391 5391 5392 5393 5394 5395 5397 5400 5402 5405
5410 5408 5406 5405 5403 5402 5400 5399 5397 5395 5394 5392 5390 5389 5387 5386 5384 5383 5382 5381 5380 5379 5379 5379 5378 5378 5378 5378 5378 5378 5378 5378 5378 5378 5379 5379 5380 5381 5383 5384 5386 5389 5391 5394
5397 5396 5394 5392 5391 5389 5387 5385 5383 5382 5380 5378 5376 5375 5373 5372 5371 5369 5368 5368 5368 5366 5365 5365 5365 5365 5365 5365 5365 5365 5365 5366 5366 5367 5367 5368 5369 5371 5373 5375 5377 5379 5382 5384
5385 5383 5381 5379 5377 5376 5374 5372 5370 5368 5367 5365 5363 5361 5360 5359 5358 5357 5356 5355 5355 5354 5353 5353 5353 5353 5353 5353 5353 5354 5354 5355 5356 5356 5357 5359 5360 5362 5364 5366 5368 5371 5373 5375
5373 5371 5369 5367 5365 5363 5362 5360 5358 5356 5354 5353 5351 5349 5347 5346 5345 5344 5345 5344 5343 5343 5342 5342 5342 5342 5342 5342 5343 5343 5344 5345 5346 5347 5348 5350 5351 5354 5356 5358 5360 5363 5365 5367
5360 5359 5357 5355 5353 5352 5350 5348 5346 5344 5343 5341 5339 5337 5335 5334 5334 5333 5332 5332 5332 5332 5332 5332 5332 5332 5332 5333 5333 5334 5335 5336 5337 5338 5340 5341 5343 5346 5348 5350 5353 5355 5357 5359
5349 5347 5346 5344 5342 5340 5338 5337 5335 5334 5332 5330 5329 5327 5325 5323 5323 5323 5322 5322 5322 5322 5323 5323 5323 5323 5323 5324 5324 5325 5326 5327 5328 5330 5332 5334 5336 5338 5340 5343 5345 5347 5349 5351
5338 5336 5335 5333 5331 5329 5327 5325 5324 5323 5321 5320 5319 5317 5315 5314 5313 5312 5312 5313 5313 5313 5313 5314 5314 5315 5315 5316 5316 5317 5318 5319 5320 5322 5324 5326 5328 5331 5333 5335 5337 5340 5342 5344
5327 5326 5324 5323 5321 5319 5317 5315 5313 5312 5311 5309 5308 5307 5306 5305 5304 5303 5303 5303 5304 5304 5305 5306 5306 5307 5307 5308 5308 5309 5310 5312 5313 5315 5317 5319 5321 5324 5326 5328 5331 5333 5335 5337